This demonstration page uses our WeatherBlox Daily Observations layout. Learn more.

Left ArrowRight Arrow

38.80484, -77.04692

Hourly Observations for December 20, 2020

Temp ( °F °C ) Dew Point ( °F °C ) Humidity (%) Winds ( mph kmh ) Pressure ( in mb ) Visibility ( mi km ) Precip ( " mm )
12:52 am 00:52 Cloudy 35 1.7 30 -1.1 82 82 SSW 7 11 30.25 1025 10 16 N/A
1:52 am 01:52 Cloudy 36 2.2 31 -0.6 82 82 S 9 15 30.24 1024 10 16 N/A
2:52 am 02:52 Cloudy 37 2.8 31 -0.6 79 79 S 9 15 30.22 1023 10 16 N/A
3:52 am 03:52 Cloudy 37 2.8 31 -0.6 79 79 S 5 7 30.20 1023 10 16 N/A
4:52 am 04:52 Cloudy 37 2.8 32 undefined 82 82 S 6 9 30.20 1023 10 16 N/A
5:52 am 05:52 Cloudy 37 2.8 32 undefined 82 82 SE 3 6 30.18 1022 10 16 N/A
6:52 am 06:52 Cloudy 38 3.3 32 undefined 79 79 SSE 3 6 30.19 1022 10 16 N/A
7:52 am 07:52 Cloudy 38 3.3 32 undefined 79 79 SSE 5 7 30.17 1022 10 16 N/A
8:52 am 08:52 Cloudy 39 3.9 33 0.6 79 79 SSE 13 20 30.16 1021 10 16 N/A
9:52 am 09:52 Cloudy 40 4.4 34 1.1 79 79 SSW 14 22 30.14 1021 10 16 0.00 0.00
10:52 am 10:52 Cloudy 43 6.1 34 1.1 71 71 SSW 12 19 30.13 1020 10 16 N/A
11:52 am 11:52 Mostly Cloudy 43 6.1 34 1.1 71 71 SSW 12 19 30.10 1019 10 16 N/A
12:17 pm 12:17 Mostly Cloudy 43 6.1 35 1.7 74 74 S 10 17 30.09 1019 10 16 N/A
12:52 pm 12:52 Cloudy 44 6.7 35 1.7 71 71 S 8 13 30.07 1018 10 16 N/A
1:52 pm 13:52 Cloudy 44 6.7 36 2.2 73 73 SSW 10 17 30.05 1018 10 16 N/A
2:35 pm 14:35 Mostly Cloudy 44 6.7 36 2.2 73 73 S 9 15 30.04 1017 10 16 N/A
2:52 pm 14:52 Mostly Cloudy 43 6.1 37 2.8 80 80 S 9 15 30.03 1017 10 16 N/A
3:52 pm 15:52 Mostly Cloudy 43 6.1 37 2.8 80 80 S 7 11 30.04 1017 10 16 N/A
4:52 pm 16:52 Cloudy 43 6.1 37 2.8 80 80 S 8 13 30.03 1017 10 16 N/A
5:52 pm 17:52 Cloudy 42 5.6 37 2.8 82 82 S 7 11 30.04 1017 10 16 N/A
6:52 pm 18:52 Cloudy 41 5 37 2.8 86 86 S 7 11 30.03 1017 10 16 N/A
7:28 pm 19:28 Partly Cloudy 40 4.4 36 2.2 86 86 S 9 15 30.01 1016 10 16 N/A
7:52 pm 19:52 Mostly Clear 40 4.4 36 2.2 86 86 SSW 5 7 30.01 1016 10 16 N/A
8:02 pm 20:02 Mostly Cloudy 41 5 37 2.8 86 86 SSW 5 7 30.01 1016 10 16 N/A
8:31 pm 20:31 Partly Cloudy 40 4.4 36 2.2 86 86 S 6 9 30.01 1016 10 16 N/A
8:45 pm 20:45 Mostly Cloudy 42 5.6 37 2.8 82 82 W 3 6 30.01 1016 10 16 N/A
8:52 pm 20:52 Mostly Cloudy 42 5.6 37 2.8 82 82 N N/A 30.00 1016 10 16 N/A
9:31 pm 21:31 Cloudy 42 5.6 37 2.8 82 82 SW 3 6 30.00 1016 10 16 N/A
9:52 pm 21:52 Cloudy 41 5 37 2.8 86 86 N N/A 29.99 1016 10 16 N/A
10:52 pm 22:52 Cloudy 42 5.6 37 2.8 82 82 N N/A 29.97 1015 10 16 N/A
11:52 pm 23:52 Cloudy 41 5 37 2.8 86 86 SSW 6 9 29.97 1015 10 16 N/A

Powered by AerisWeather